Regional Weather Roundup
Issued by NWS

Current Version | Previous Version | Text Only | Print | Product List | Glossary On
Versions: 1 2 3 4 5 6 7 8 9 10 11 12 13 14 15 16 17 18 19 20 21 22 23 24 25 26 27 28 29 30 31 32 33 34 35 36 37 38 39 40 41 42 43 44 45 46 47 48 49 50
000
ASUS44 KLIX 301311
RWRLA
LOUISIANA WEATHER ROUNDUP
NATIONAL WEATHER SERVICE NEW ORLEANS LA
800 AM CDT SAT MAY 30 2015

NOTE: "FAIR" INDICATES FEW OR NO CLOUDS BELOW 12,000 FEET WITH NO
      SIGNIFICANT WEATHER AND/OR OBSTRUCTIONS TO VISIBILITY.
      SKY/WX - SKY CONDITION AND SIGNIFICANT WEATHER.
      TMP - AIR TEMPERATURE.    DP   - DEWPOINT TEMPERATURE.
      RH  - RELATIVE HUMIDITY.  PRES - PRESSURE.
      HX  - HEAT INDEX.         WCI  - WIND CHILL INDEX.

*  THESE STATIONS ARE NOT NWS OR FAA STATIONS AND ARE NOT UNDER
   NWS QUALITY CONTROL.

LAZ040-048-061>063-065-066-069-301400-
SOUTHEAST LOUISIANA

CITY           SKY/WX    TMP DP  RH WIND       PRES   REMARKS
N.O. AUDUBON   NOT AVBL
N.O. INTL ARPT PTSUNNY   78  72  81 E3        30.06R
N.O. LAKEFRONT MOSUNNY   82  72  71 E3        30.07R
SLIDELL        MOSUNNY   77  74  90 CALM      30.07R
BATON ROUGE    SUNNY     76  72  87 E3        30.07R
BOOTHVILLE     SUNNY     80  74  81 E5        30.07R
BELLE CHASSE   MOSUNNY   79  73  82 CALM      30.06R
BOGALUSA*        N/A     74  70  85 CALM      30.09R
GALLIANO*      SUNNY     78  75  89 CALM      30.07R
NEW ROADS*     FAIR      75  73  92 SE3       30.07R
GONZALES*      FAIR      76  75  96 CALM      30.06R
HAMMOND*       CLOUDY    77  70  78 CALM      30.08S
HOUMA*         MOSUNNY   77  73  88 CALM      30.06R
PORT FOURCHON* PTSUNNY   81  72  74 SE5       30.06S

$$

LAZ041-044-053-054-301400-
SOUTHWEST LOUISIANA

CITY           SKY/WX    TMP DP  RH WIND       PRES   REMARKS
LAKE CHARLES   MOSUNNY   77  74  90 SE3       30.04R
LAFAYETTE      MOSUNNY   76  73  91 CALM      30.06R
PATTERSON      MOSUNNY   75  72  88 E3        30.07R
SALT POINT       N/A     79  75  87 E3        30.04R
NEW IBERIA     SUNNY     78  73  84 SE5       30.06R
CHENAULT AIRPK MOSUNNY   75  73  94 CALM      30.05R

$$

LAZ027-028-301400-
CENTRAL LOUISIANA

CITY           SKY/WX    TMP DP  RH WIND       PRES   REMARKS
FORT POLK      CLOUDY    73  72  96 S5        30.04R FOG
ALEXANDRIA INT CLOUDY    73  73 100 S3        30.04R FOG
ALEXANDRIA     CLOUDY    75  73  93 S6        30.05R FOG

$$

LAZ001-002-301400-
NORTHWEST LOUISIANA

CITY           SKY/WX    TMP DP  RH WIND       PRES   REMARKS
SHREVEPORT     PTSUNNY   76  72  87 VRB3      30.02R THUNDER
BARKSDALE AFB  PTSUNNY   75  71  88 N2        30.02R THUNDER
DTN SHREVEPORT CLOUDY    74  70  87 CALM      30.02S THUNDER

$$

LAZ014-016-301400-
NORTHEAST LOUISIANA

CITY           SKY/WX    TMP DP  RH WIND       PRES   REMARKS
MONROE         CLOUDY    74  73  97 S7        30.05R
TALLULAH       SUNNY     75  71  87 S8        30.07R

$$



USA.gov is the U.S. government's official web portal to all federal, state and local government web resources and services.